Flag for Australia Weather past 2 weeks in Bairnsdale, Victoria, Australia

Now
56 °F

Cool.


Feels Like: 53 °F
Forecast: 38 / 69 °F
Wind: 10 mph from East

Location: Bairnsdale Airport

Current Time: Aug 30, 2014 at 12:34:39 PM

Latest Report: Aug 30, 2014 at 11:00 AM


Visibility: N/A

Pressure: 30.33 "Hg

Humidity: 70%

Dew point: 46 °F

Location of BairnsdaleLocation

Historic Weather in Bairnsdale — Graph

°F

Bairnsdale temperature yesterday

Maximum temperature yesterday: 62 °F (at 2:00 PM)
Minimum temperature yesterday: 36 °F (at 6:00 AM)
Average temperature yesterday: 48 °F

Past Weeks' High & Low Weather Summary

 TemperatureHumidityPressure
High65 °F (Aug 23, 2:00 PM)100% (Aug 18, 6:00 AM)30.49 "Hg (Aug 18, 6:00 AM)
Low31 °F (Aug 16, 6:00 AM)56% (Aug 27, 2:00 PM)30.00 "Hg (Aug 18, 3:00 AM)
Average50 °F87%30.30 "Hg
* Reported Aug 15 11:00 AM — Aug 30 11:00 AM, Bairnsdale, Weather by CustomWeather, © 2014

Note: Actual official high and low records may vary slightly from our data, if they occured in-between our weather recording intervals... More about our weather records

Advertising

Bairnsdale weather history for previous 24 hours

 ConditionsComfort  
Time TempWeatherWind HumidityBarometerVisibility
11:00 AM
Aug 30
56 °FCool.10 mph70%30.33 "HgN/A
9:00 AM49 °FCool.3 mph100%30.37 "HgN/A
8:00 AM42 °FQuite cool.3 mph99%30.37 "HgN/A
6:00 AM35 °FPassing clouds.5 mph99%30.36 "Hg1 mi
5:00 AM38 °FChilly.3 mph99%30.36 "HgN/A
3:00 AM39 °FPassing clouds.5 mph99%30.37 "Hg0 mi
2:00 AM40 °FQuite cool.3 mph99%30.37 "HgN/A
12:00 AM42 °FLow clouds.3 mph100%30.39 "Hg0 mi
11:00 PM
Aug 29
41 °FQuite cool.5 mph100%30.39 "HgN/A
9:00 PM48 °FLow clouds.1 mph99%30.38 "Hg0 mi
8:00 PM50 °FCool.5 mph99%30.38 "HgN/A
6:00 PM50 °FLow clouds.6 mph96%30.36 "HgN/A
5:00 PM53 °FCool.7 mph88%30.36 "HgN/A
3:00 PM58 °FPassing clouds.10 mph78%30.34 "HgN/A
2:00 PM62 °FMild.3 mph68%30.35 "HgN/A
12:00 PM59 °FCool.6 mph71%30.38 "HgN/A
Weather by CustomWeather, © 2014

See weather overviewHow to use our weather pages